TimeCDT,TemperatureF,Dew PointF,Humidity,Sea Level PressureIn,VisibilityMPH,Wind Direction,Wind SpeedMPH,Gust SpeedMPH,PrecipitationIn,Events,Conditions,WindDirDegrees,DateUTC
12:56 AM,50.0,46.0,86,29.89,10.0,NW,6.9,-,N/A,,Overcast,320,2012-10-28 05:56:00
1:11 AM,51.8,46.4,82,29.90,10.0,Variable,6.9,-,N/A,,Overcast,0,2012-10-28 06:11:00
1:56 AM,51.1,46.0,83,29.88,10.0,NNW,5.8,-,N/A,,Overcast,330,2012-10-28 06:56:00
2:49 AM,51.8,44.6,76,29.87,10.0,NW,8.1,-,N/A,,Overcast,310,2012-10-28 07:49:00
2:56 AM,51.1,45.0,80,29.87,10.0,NW,9.2,-,N/A,,Overcast,320,2012-10-28 07:56:00
3:51 AM,50.0,44.6,82,29.87,10.0,NW,9.2,-,N/A,,Overcast,320,2012-10-28 08:51:00
3:56 AM,50.0,46.0,86,29.87,10.0,NW,8.1,-,N/A,,Overcast,320,2012-10-28 08:56:00
4:29 AM,50.0,46.4,87,29.88,10.0,NW,8.1,-,N/A,,Overcast,310,2012-10-28 09:29:00
4:56 AM,50.0,46.0,86,29.88,10.0,Variable,6.9,-,N/A,,Overcast,0,2012-10-28 09:56:00
5:56 AM,50.0,46.0,86,29.88,10.0,NNW,10.4,-,N/A,,Overcast,330,2012-10-28 10:56:00
7:14 AM,50.0,46.4,87,29.91,10.0,NW,10.4,-,N/A,,Overcast,310,2012-10-28 12:14:00
7:47 AM,50.0,44.6,82,29.92,10.0,NW,10.4,18.4,N/A,,Overcast,320,2012-10-28 12:47:00
7:56 AM,50.0,45.0,83,29.92,10.0,NW,10.4,-,N/A,,Overcast,310,2012-10-28 12:56:00
8:56 AM,52.0,44.1,74,29.92,10.0,NW,10.4,-,N/A,,Overcast,320,2012-10-28 13:56:00
9:37 AM,53.6,42.8,67,29.92,10.0,NW,10.4,17.3,N/A,,Mostly Cloudy,310,2012-10-28 14:37:00
9:56 AM,55.0,43.0,64,29.91,10.0,NW,16.1,21.9,N/A,,Partly Cloudy,320,2012-10-28 14:56:00
10:56 AM,57.0,42.1,57,29.91,10.0,NNW,15.0,21.9,N/A,,Scattered Clouds,340,2012-10-28 15:56:00
11:21 AM,57.2,42.8,59,29.92,10.0,NNW,19.6,29.9,N/A,,Mostly Cloudy,340,2012-10-28 16:21:00
11:56 AM,57.9,42.1,56,29.91,10.0,North,19.6,31.1,N/A,,Mostly Cloudy,360,2012-10-28 16:56:00
12:56 PM,60.1,42.1,51,29.90,10.0,North,17.3,21.9,N/A,,Mostly Cloudy,350,2012-10-28 17:56:00
1:56 PM,61.0,42.1,50,29.89,10.0,NW,16.1,28.8,N/A,,Mostly Cloudy,320,2012-10-28 18:56:00
2:56 PM,63.0,42.1,46,29.88,10.0,NW,18.4,25.3,N/A,,Partly Cloudy,320,2012-10-28 19:56:00
3:56 PM,63.0,41.0,45,29.88,10.0,NNW,18.4,26.5,N/A,,Clear,330,2012-10-28 20:56:00
4:56 PM,62.1,39.0,43,29.90,10.0,NNW,10.4,26.5,N/A,,Clear,330,2012-10-28 21:56:00
5:56 PM,57.9,37.9,47,29.92,10.0,NNW,12.7,21.9,N/A,,Clear,330,2012-10-28 22:56:00
6:56 PM,55.0,39.0,55,29.94,10.0,NW,5.8,-,N/A,,Clear,310,2012-10-28 23:56:00
7:56 PM,53.1,39.0,59,29.96,10.0,WNW,5.8,-,N/A,,Clear,300,2012-10-29 00:56:00
8:56 PM,52.0,37.0,57,29.98,10.0,NW,8.1,-,N/A,,Clear,310,2012-10-29 01:56:00
9:56 PM,51.1,37.0,59,29.99,10.0,NW,9.2,-,N/A,,Clear,310,2012-10-29 02:56:00
10:56 PM,50.0,35.1,57,30.00,10.0,NW,10.4,17.3,N/A,,Clear,320,2012-10-29 03:56:00
11:56 PM,48.0,35.1,61,30.00,10.0,NW,8.1,16.1,N/A,,Clear,320,2012-10-29 04:56:00